Stations météo

réclame
Mon MeteoGroup
Lichteiland Goeree, Pays-Bas (6320): Température de l'air & dewpoint: 11.01.2019 01:00:00 - 17.01.2019 01:00:00 (CET)Lichteiland Goeree, Pays-Bas (6320): water temperature: 11.01.2019 01:00:00 - 17.01.2019 01:00:00 (CET)Lichteiland Goeree, Pays-Bas (6320): Vitesse du vent & gusts: 11.01.2019 01:00:00 - 17.01.2019 01:00:00 (CET)Lichteiland Goeree, Pays-Bas (6320): Direction du vent: 11.01.2019 01:00:00 - 17.01.2019 01:00:00 (CET)Lichteiland Goeree, Pays-Bas (6320): reduced air pressure: 11.01.2019 01:00:00 - 17.01.2019 01:00:00 (CET)Lichteiland Goeree, Pays-Bas (6320): visibility: 11.01.2019 01:00:00 - 17.01.2019 01:00:00 (CET)
Date & Time tt [°C] td [°C] tw [°C] ff [km/h] ff [knt] fx [km/h] fx [knt] dd ppp [hPa] vv [km]
17.01.2019 01:00:00 7,1 3,7 7,5 39 21 43 23 W 1001,6 10
17.01.2019 00:00:00 6,9 3,7 7,5 26 14 36 19 W 1001,6 10
16.01.2019 23:00:00 5,9 2,8 7,5 22 12 32 18 NW 1001,3 10
16.01.2019 22:00:00 5,1 4,1 7,5 44 24 65 35 NNW 1001,1 5
16.01.2019 21:00:00 7,0 4,9 7,7 59 32 65 35 SW 999,6 9
16.01.2019 20:00:00 6,9 4,9 7,6 55 30 65 35 SW 1000,1 10
16.01.2019 19:00:00 6,5 4,7 7,6 50 27 58 31 SW 1000,9 4,1
16.01.2019 18:00:00 6,6 4,4 7,5 54 29 58 31 SSW 1001,6 8
16.01.2019 17:00:00 6,6 4,5 7,5 50 27 54 29 SSW 1002,5 4,4
16.01.2019 16:00:00 6,6 4,5 7,5 46 25 50 27 SW 1003,4 8
16.01.2019 15:00:00 6,4 4,3 7,5 52 28 54 29 SW 1004,0 5
16.01.2019 14:00:00 6,3 4,2 7,5 52 28 61 33 SW 1005,0 10
16.01.2019 13:00:00 6,6 4,1 7,5 57 31 58 31 SW 1005,9 10
16.01.2019 12:00:00 6,6 4,0 7,5 55 30 61 33 SW 1006,8 10
16.01.2019 11:00:00 6,7 4,0 7,5 57 31 61 33 SW 1007,7 10
16.01.2019 10:00:00 6,8 4,5 7,6 57 31 61 33 SW 1008,2 10
16.01.2019 09:00:00 6,6 5,1 7,5 57 31 61 33 SW 1008,7 6
16.01.2019 08:00:00 7,0 5,2 7,5 55 30 58 31 SW 1008,7 7
16.01.2019 07:00:00 6,7 5,8 7,5 52 28 54 29 SW 1009,1 7
16.01.2019 06:00:00 7,2 6,3 7,5 52 28 54 29 SW 1009,9 8
16.01.2019 05:00:00 7,5 6,8 7,6 42 23 47 25 SW 1010,6 6
16.01.2019 04:00:00 7,8 6,9 7,6 41 22 43 23 WSW 1011,6 9
16.01.2019 03:00:00 7,7 6,5 7,5 37 20 50 27 SW 1012,2 10
16.01.2019 02:00:00 8,2 6,0 7,3 39 21 50 27 WSW 1012,7 10
16.01.2019 01:00:00 8,7 5,5 7,4 42 23 43 23 WSW 1013,0 10
16.01.2019 00:00:00 8,6 6,0 7,4 41 22 47 25 WSW 1013,5 10
15.01.2019 23:00:00 8,3 6,6 7,5 41 22 47 25 WSW 1014,0 10
15.01.2019 22:00:00 8,5 6,3 7,6 44 24 47 25 WSW 1014,6 10
15.01.2019 21:00:00 8,5 6,2 7,5 42 23 47 25 WSW 1014,9 10
15.01.2019 20:00:00 8,5 5,9 7,5 42 23 47 25 WSW 1015,2 10
15.01.2019 19:00:00 8,3 6,0 7,5 41 22 47 25 W 1015,7 10
15.01.2019 18:00:00 8,3 5,8 7,5 44 24 50 27 W 1015,9 10
15.01.2019 17:00:00 8,4 5,5 7,5 42 23 47 25 W 1016,3 10
15.01.2019 16:00:00 8,3 5,6 7,5 41 22 47 25 W 1016,3 10
15.01.2019 15:00:00 8,2 5,4 7,5 42 23 50 27 W 1016,4 10
15.01.2019 14:00:00 8,3 5,2 7,4 44 24 50 27 W 1016,8 10
15.01.2019 13:00:00 8,2 5,3 7,4 41 22 43 23 W 1017,3 10
15.01.2019 12:00:00 7,9 5,1 7,4 44 24 47 25 W 1017,8 10
15.01.2019 11:00:00 7,8 4,7 7,5 44 24 47 25 W 1018,1 10
15.01.2019 10:00:00 7,8 4,6 7,6 46 25 50 27 W 1018,3 10
15.01.2019 09:00:00 7,5 4,4 7,4 46 25 47 25 W 1018,3 10
15.01.2019 08:00:00 7,5 4,2 7,4 41 22 43 23 W 1018,4 10
15.01.2019 07:00:00 7,6 4,3 7,4 37 20 40 21 W 1018,7 10
15.01.2019 06:00:00 7,7 4,2 7,4 37 20 40 21 W 1019,1 10
15.01.2019 05:00:00 7,6 4,7 7,3 34 18 36 19 W 1019,4 10
15.01.2019 04:00:00 7,5 4,6 7,3 34 18 40 21 W 1019,8 10
15.01.2019 03:00:00 7,7 4,9 7,4 28 15 29 16 W 1020,1 10
15.01.2019 02:00:00 7,2 4,0 7,3 28 15 29 16 W 1020,4 10
15.01.2019 01:00:00 6,9 3,1 7,4 28 15 29 16 W 1020,6 10
15.01.2019 00:00:00 6,7 2,6 7,2 24 13 29 16 WNW 1020,9 10
14.01.2019 23:00:00 6,5 2,9 7,4 18 10 25 14 NW 1021,0 10
14.01.2019 22:00:00 6,2 2,4 7,5 26 14 32 18 NW 1021,0 10
14.01.2019 21:00:00 6,2 2,2 7,5 29 16 36 19 NW 1020,9 10
14.01.2019 20:00:00 6,4 1,9 7,5 31 17 36 19 NNW 1020,7 10
14.01.2019 19:00:00 6,3 2,0 7,5 24 13 36 19 NW 1020,6 10
14.01.2019 18:00:00 6,2 1,7 7,5 34 18 43 23 NW 1020,0 10
14.01.2019 17:00:00 6,6 1,1 7,5 34 18 43 23 NNW 1019,6 10
14.01.2019 16:00:00 6,9 1,1 7,5 41 22 43 23 NNW 1019,0 10
14.01.2019 15:00:00 7,0 1,2 7,6 39 21 47 25 NNW 1018,5 10
14.01.2019 14:00:00 7,1 -0,4 7,4 39 21 47 25 NNW 1018,0 10
14.01.2019 13:00:00 7,2 1,3 7,4 44 24 47 25 NNW 1017,3 10
14.01.2019 12:00:00 7,4 1,9 7,5 41 22 43 23 NNW 1016,7 10
14.01.2019 11:00:00 7,3 2,4 7,4 37 20 47 25 NNW 1015,9 10
14.01.2019 10:00:00 7,6 3,2 7,4 34 18 43 23 N 1015,3 10
14.01.2019 09:00:00 7,6 4,1 7,4 37 20 43 23 NNW 1014,1 10
14.01.2019 08:00:00 5,8 2,7 7,5 44 24 61 33 NW 1013,1 10
14.01.2019 07:00:00 7,8 4,5 7,4 54 29 61 33 NW 1012,0 9
14.01.2019 06:00:00 7,9 4,5 7,5 48 26 58 31 NW 1011,3 10
14.01.2019 05:00:00 7,3 3,5 7,4 48 26 54 29 NW 1010,7 10
14.01.2019 04:00:00 8,4 4,3 7,5 46 25 54 29 NW 1010,0 10
14.01.2019 03:00:00 8,3 4,8 7,4 50 27 58 31 NW 1009,7 10
14.01.2019 02:00:00 8,4 4,4 7,5 55 30 61 33 NW 1008,6 10
14.01.2019 01:00:00 8,6 4,3 7,5 59 32 65 35 NW 1008,1 10
14.01.2019 00:00:00 8,7 4,5 7,5 57 31 65 35 NW 1007,5 10
13.01.2019 23:00:00 8,8 4,6 7,6 57 31 68 37 NW 1006,8 10
13.01.2019 22:00:00 9,3 4,6 7,6 54 29 65 35 NW 1006,5 10
13.01.2019 21:00:00 9,6 4,5 7,5 57 31 65 35 NW 1005,9 10
13.01.2019 20:00:00 9,7 6,0 7,6 57 31 65 35 WNW 1005,5 10
13.01.2019 19:00:00 10,0 6,8 7,4 54 29 61 33 WNW 1005,1 10
13.01.2019 18:00:00 9,6 7,3 7,4 54 29 65 35 W 1004,9 10
13.01.2019 17:00:00 9,8 7,1 7,4 57 31 61 33 W 1005,2 10
13.01.2019 16:00:00 9,6 7,1 7,4 52 28 58 31 WNW 1005,4 10
13.01.2019 15:00:00 9,7 7,1 7,4 54 29 58 31 WNW 1005,7 10
13.01.2019 14:00:00 9,6 7,0 7,5 52 28 54 29 W 1005,5 10
13.01.2019 13:00:00 9,6 7,1 7,5 43 23 50 27 W 1006,6 15
13.01.2019 12:00:00 9,5 7,2 7,5 48 26 54 29 W 1007,5 10
13.01.2019 11:00:00 9,5 7,2 7,5 46 25 50 27 W 1008,5 10
13.01.2019 10:00:00 9,5 7,0 7,5 52 28 54 29 W 1008,6 10
13.01.2019 09:00:00 9,5 7,1 7,5 48 26 50 27 W 1009,1 10
13.01.2019 08:00:00 9,5 7,1 7,5 50 27 50 27 W 1009,2 10
13.01.2019 07:00:00 9,7 7,2 7,5 48 26 50 27 W 1009,9 10
13.01.2019 06:00:00 9,5 7,5 7,4 44 24 50 27 W 1010,1 9
13.01.2019 05:00:00 9,4 7,6 7,5 46 25 47 25 W 1011,1 10
13.01.2019 04:00:00 8,6 8,2 7,4 41 22 47 25 W 1011,8 3,3
13.01.2019 03:00:00 8,5 8,1 7,4 41 22 43 23 WNW 1012,3 3,4
13.01.2019 02:00:00 8,4 7,9 7,5 37 20 47 25 WNW 1012,9 2,6
13.01.2019 01:00:00 8,3 7,6 7,5 41 22 47 25 WNW 1013,4 8
13.01.2019 00:00:00 8,2 7,4 7,5 32 18 47 25 WNW 1013,7 9
12.01.2019 23:00:00 8,3 6,8 7,5 46 25 47 25 WNW 1014,3 10
12.01.2019 22:00:00 8,7 6,2 7,6 44 24 50 27 WNW 1014,5 10
12.01.2019 21:00:00 8,8 6,0 7,6 44 24 47 25 WNW 1014,9 10
12.01.2019 20:00:00 9,0 6,0 7,5 46 25 50 27 WNW 1015,2 10
12.01.2019 19:00:00 9,0 6,0 7,5 48 26 50 27 W 1015,3 10
12.01.2019 18:00:00 8,9 6,1 7,5 44 24 47 25 WNW 1015,7 10
12.01.2019 17:00:00 8,9 6,2 7,3 46 25 47 25 WNW 1016,0 10
12.01.2019 16:00:00 9,0 6,4 7,4 50 27 50 27 WNW 1016,1 10
12.01.2019 15:00:00 8,8 6,7 7,4 48 26 54 29 W 1015,8 10
12.01.2019 14:00:00 8,8 6,7 7,4 48 26 54 29 W 1016,7 10
12.01.2019 13:00:00 8,8 6,6 7,4 48 26 54 29 W 1017,5 10
12.01.2019 12:00:00 8,8 6,3 7,5 50 27 54 29 W 1018,2 10
12.01.2019 11:00:00 8,4 6,3 7,5 50 27 54 29 W 1019,2 10
12.01.2019 10:00:00 8,4 5,7 7,5 50 27 54 29 W 1019,7 10
12.01.2019 09:00:00 8,6 5,6 7,5 41 22 47 25 W 1020,4 10
12.01.2019 08:00:00 8,4 5,2 7,4 36 19 47 25 W 1020,8 19
12.01.2019 07:00:00 8,2 4,9 7,3 44 24 47 25 W 1021,7 10
12.01.2019 06:00:00 7,9 4,3 7,2 44 24 47 25 W 1022,4 10
12.01.2019 05:00:00 8,0 4,2 7,4 35 19 40 21 W 1023,4 10
12.01.2019 04:00:00 7,9 3,0 7,2 29 16 40 21 W 1024,2 10
12.01.2019 03:00:00 7,9 2,9 7,3 34 18 36 19 WNW 1024,8 10
12.01.2019 02:00:00 7,8 5,0 7,5 31 17 32 18 WNW 1025,5 10
12.01.2019 01:00:00 8,1 4,8 7,5 34 18 36 19 WNW 1026,0 10
12.01.2019 00:00:00 8,3 4,6 7,5 35 19 36 19 WNW 1026,3 10
11.01.2019 23:00:00 7,9 4,9 7,6 34 18 43 23 NW 1026,5 10
11.01.2019 22:00:00 7,3 5,8 7,6 31 17 47 25 NNW 1026,6 7
11.01.2019 21:00:00 8,2 5,1 7,6 34 18 40 21 NNW 1026,6 10
11.01.2019 20:00:00 7,5 5,1 7,6 48 26 54 29 NNW 1026,5 10
11.01.2019 19:00:00 7,5 5,1 7,4 42 23 50 27 N 1026,4 9
11.01.2019 18:00:00 8,5 5,3 7,5 42 23 47 25 NNW 1026,2 10
11.01.2019 17:00:00 8,1 5,6 7,5 42 23 47 25 NNW 1026,0 10
11.01.2019 16:00:00 7,8 6,6 7,4 35 19 50 27 N 1026,2 9
11.01.2019 15:00:00 7,7 5,9 7,4 42 23 47 25 NNW 1026,0 10
11.01.2019 14:00:00 8,3 6,3 7,4 37 20 43 23 NNW 1026,0 10
11.01.2019 13:00:00 8,3 6,4 7,4 35 19 40 21 NNW 1026,3 10
11.01.2019 12:00:00 8,3 6,6 7,5 31 17 36 19 NNW 1026,6 10
11.01.2019 11:00:00 8,3 6,5 7,4 37 20 36 19 N 1026,5 10
11.01.2019 10:00:00 8,3 6,6 7,4 31 17 32 18 N 1026,3 10
11.01.2019 09:00:00 8,3 6,5 7,4 28 15 32 18 N 1026,2 10
11.01.2019 08:00:00 8,2 7,1 7,5 29 16 32 18 N 1025,8 9
11.01.2019 07:00:00 8,0 7,5 7,5 22 12 25 14 N 1025,3 10
11.01.2019 06:00:00 7,9 7,5 7,4 28 15 40 21 NNE 1025,2 10
11.01.2019 05:00:00 8,1 7,7 7,4 28 15 32 18 N 1025,2 3,7
11.01.2019 04:00:00 8,1 7,8 7,4 24 13 25 14 N 1025,1 3,8
11.01.2019 03:00:00 8,2 7,9 7,4 26 14 29 16 N 1025,1 3,3
11.01.2019 02:00:00 7,3 7,0 7,3 26 14 29 16 WNW 1025,3 2,3
11.01.2019 01:00:00 6,5 5,9 7,4 29 16 32 18 WNW 1025,6 3,3

tt = Température de l'air
td = dewpoint
tw = water temperature
ff = Vitesse du vent
fx = gusts
dd = Direction du vent
ppp = reduced air pressure
vv = visibility

stations d'obs. à proximité